Theta_e
277 276 276 276 276 276 276 275 275 276 275 275 275 275 275 274 274 274 274 275 276 277 278 279 278 281 281 282 283 283 282 284 282 286 291 302 303 301 302 302 303 304 304
277 277 276 276 276 275 275 275 275 274 275 274 275 274 274 273 273 273 272 274 275 276 277 277 276 279 279 280 280 280 281 283 284 282 287 293 301 301 302 300 301 303 304
276 276 276 276 275 274 274 274 275 273 272 273 273 272 272 272 271 271 273 274 275 277 277 276 276 276 277 277 278 279 280 282 283 283 284 291 298 294 298 298 299 300 301
276 275 275 275 275 274 274 274 274 273 271 270 270 271 271 270 270 271 273 274 275 277 277 276 275 275 275 276 277 278 280 280 281 282 283 286 293 294 297 295 292 291 295
275 275 275 275 275 274 273 273 273 273 273 271 270 268 268 269 271 271 273 274 275 274 274 275 275 274 277 277 277 277 279 279 279 280 282 284 288 288 291 292 293 290 286
275 275 275 275 274 274 273 273 272 272 271 271 271 269 267 268 272 275 275 273 273 272 271 273 272 273 275 276 277 279 281 279 278 279 280 281 284 289 291 291 291 286 286
273 275 275 274 274 273 272 271 271 270 270 270 269 267 263 265 271 274 275 272 271 270 271 270 271 273 272 273 275 279 280 280 281 280 280 281 281 285 289 288 289 289 290
275 275 275 274 273 272 271 270 269 269 268 265 263 262 260 263 271 273 274 270 268 267 267 268 269 270 271 273 275 276 274 276 278 280 281 281 284 286 287 290 291 288 286
274 275 274 273 272 270 269 267 266 265 262 260 263 261 260 261 269 272 273 269 269 267 268 268 268 269 274 278 275 272 272 274 279 282 282 284 285 290 290 289 286 286 285
273 273 272 271 271 268 268 267 266 262 262 263 262 261 261 259 267 272 272 270 268 268 269 268 273 272 276 277 273 272 271 273 276 275 275 278 283 286 288 290 289 287 287
272 270 269 268 269 268 266 265 264 261 261 256 259 259 259 259 260 271 273 271 269 269 270 269 270 275 276 275 275 271 272 275 274 271 273 276 279 285 286 288 288 289 288
268 267 266 266 268 268 266 265 263 260 258 257 256 258 260 260 265 270 273 274 274 271 270 270 271 274 274 273 272 273 274 272 269 269 270 271 273 275 282 285 286 286 285
263 264 261 263 266 266 263 261 260 259 258 258 258 258 260 262 263 270 272 273 274 272 271 273 272 272 271 268 270 271 267 265 266 266 267 268 270 274 278 281 281 281 282
263 261 260 260 261 260 263 263 261 259 257 260 259 260 261 264 263 266 268 270 273 272 272 264 268 268 267 267 264 265 264 264 264 265 265 268 270 273 275 280 279 280 280
260 259 260 260 260 260 262 261 262 262 262 260 261 264 264 264 265 271 272 271 271 273 266 260 260 261 260 260 260 261 261 262 262 264 264 266 267 269 271 279 279 279 279
262 262 261 261 260 260 260 259 266 268 270 271 272 270 269 271 272 273 274 274 274 273 257 252 257 258 258 258 258 258 259 260 261 262 263 264 266 267 268 273 279 279 278
262 262 261 261 260 258 258 258 258 261 266 268 269 270 270 270 271 272 272 273 271 266 250 251 255 256 257 257 257 257 257 259 260 261 262 263 265 265 266 269 277 278 277
259 260 260 258 257 256 256 257 257 257 257 259 262 264 267 269 269 269 270 268 257 258 250 251 253 254 255 255 256 255 256 257 258 259 260 262 263 263 264 265 268 275 277
258 258 258 256 255 255 255 257 257 256 254 255 256 259 260 264 266 267 268 253 252 253 254 252 252 252 253 254 254 254 254 255 257 258 259 260 261 261 262 264 265 268 276
255 257 256 255 253 253 254 255 256 254 252 250 252 252 251 248 250 252 250 248 247 250 253 253 252 251 252 252 252 252 252 253 256 257 258 259 259 260 261 262 263 264 267
256 256 256 255 253 254 255 255 255 255 253 252 253 255 262 259 255 250 253 252 251 251 253 254 253 251 253 252 251 249 249 252 254 256 257 257 258 258 260 261 262 264 267
255 256 255 255 256 256 256 256 256 254 253 252 252 251 262 251 252 253 253 254 253 253 254 254 253 252 253 253 252 250 248 249 252 254 255 256 257 258 259 259 260 262 264
253 253 253 254 256 256 256 256 255 254 253 251 251 251 250 249 250 251 253 253 254 255 253 252 252 252 253 252 250 249 248 249 250 253 254 255 256 256 257 258 259 260 262
254 254 254 255 256 255 256 256 255 254 252 251 249 249 250 251 252 253 253 254 254 255 254 253 253 252 252 252 251 249 247 247 246 250 253 254 254 256 256 257 258 260 261
256 255 255 255 256 256 255 255 254 253 251 250 250 249 249 251 252 254 253 252 254 255 254 254 253 252 251 251 251 250 250 253 248 249 251 252 253 255 256 257 258 259 261
256 256 256 256 256 256 255 254 253 252 251 251 249 249 250 251 254 253 254 252 254 255 254 253 253 252 252 250 250 252 254 258 256 254 252 253 254 255 256 257 258 259 260
Wind_Speed
6 6 6 5 5 4 4 3 4 3 4 5 7 9 9 10 10 10 10 10 11 11 11 11 14 14 11 11 11 11 13 11 15 16 16 21 11 13 11 12 12 11 11
6 6 6 5 5 5 5 4 3 3 3 5 6 8 9 10 10 11 12 11 12 13 13 13 14 11 15 14 12 16 14 15 13 22 18 17 15 14 14 11 10 11 12
6 6 6 6 5 5 5 4 3 3 3 4 5 7 8 10 10 11 10 12 12 13 13 13 15 15 15 13 15 15 14 14 15 14 17 15 10 4 7 6 10 10 9
5 6 7 7 6 6 5 4 3 3 4 3 3 5 6 9 11 10 12 12 13 12 12 13 13 14 15 17 16 17 15 16 17 15 14 14 12 7 6 5 5 4 6
6 6 8 6 5 5 5 4 4 4 3 3 5 3 4 7 7 12 11 12 12 14 13 13 13 15 23 21 14 16 17 14 15 16 14 14 13 5 6 3 9 3 2
6 7 5 5 5 5 5 4 4 4 3 5 4 6 7 7 18 19 17 11 12 12 14 13 13 16 17 28 28 29 25 17 17 14 15 14 14 15 7 5 4 3 4
4 5 6 5 6 6 5 4 4 4 3 5 5 6 7 8 18 20 20 9 9 10 11 13 13 11 16 16 24 29 23 28 26 18 18 15 18 16 16 7 6 5 6
6 6 6 6 7 6 5 5 4 3 4 3 5 5 6 7 18 19 20 8 7 7 8 11 12 15 15 21 19 18 19 18 18 14 16 19 18 17 16 14 8 4 1
7 8 6 6 6 6 6 5 4 3 2 3 4 5 6 8 17 19 17 8 9 7 10 10 8 12 23 30 20 21 22 19 20 29 31 33 33 28 23 10 5 6 3
8 9 6 5 6 7 5 5 3 3 3 4 5 5 6 7 16 18 16 7 9 9 11 6 14 17 29 32 21 18 19 18 19 22 20 21 22 16 22 15 8 9 5
7 4 5 5 6 5 5 3 3 3 3 3 5 5 6 7 10 17 17 8 6 9 8 10 9 24 32 32 30 15 18 23 20 15 15 13 14 12 9 8 7 9 8
5 5 5 5 4 4 5 4 4 3 3 4 4 6 5 7 12 14 18 18 18 9 10 9 8 30 30 29 22 27 28 23 11 12 12 12 12 13 13 9 4 0 2
4 5 4 5 5 5 5 4 2 2 3 4 4 4 6 5 5 16 20 20 18 12 9 12 24 27 26 18 23 26 18 10 11 11 12 12 12 13 16 7 4 2 3
6 5 4 5 4 3 2 3 4 3 3 5 4 5 6 5 4 6 8 8 11 11 7 5 15 19 18 17 12 13 9 9 11 11 12 12 12 12 12 4 2 3 1
4 4 5 4 5 4 4 4 5 5 6 4 5 7 6 6 6 15 14 9 9 10 6 5 7 8 9 9 10 10 10 10 10 11 11 12 12 12 11 8 3 2 2
5 5 5 4 4 4 3 3 10 13 15 15 15 13 6 14 19 20 20 20 21 18 4 3 6 7 8 9 10 11 10 11 10 11 11 11 11 11 12 12 3 1 1
6 3 2 3 3 3 2 3 4 3 8 12 13 14 14 16 19 19 20 20 13 12 1 3 5 6 7 7 8 9 10 10 12 10 11 11 12 12 14 11 9 2 1
4 3 2 2 3 3 2 3 3 3 4 5 6 10 14 16 17 19 18 11 6 6 2 3 6 6 6 7 7 8 9 9 10 10 10 10 10 11 12 12 10 10 1
4 4 4 3 3 4 3 4 4 3 3 6 8 8 4 14 17 16 14 1 4 5 4 5 4 5 6 5 6 6 7 8 9 9 9 10 10 10 10 10 11 14 8
5 7 4 4 3 4 3 5 5 4 4 4 5 6 4 3 4 4 3 3 3 4 5 6 6 5 6 5 5 5 6 7 7 8 9 9 9 9 9 11 10 10 9
5 4 7 4 5 4 5 6 6 5 5 5 6 5 13 8 5 4 5 4 5 5 5 6 6 5 6 5 4 4 4 6 6 7 7 8 9 10 9 9 9 9 9
6 5 4 5 5 5 6 6 5 6 6 5 5 4 13 1 5 6 6 6 5 5 5 6 7 5 5 6 6 4 4 5 6 6 7 7 8 9 9 9 10 10 10
5 6 5 6 6 7 5 5 6 6 6 5 5 6 3 4 5 6 7 6 5 6 4 4 6 6 5 5 4 4 5 6 5 6 6 7 7 8 8 9 9 9 9
5 6 7 7 6 6 7 7 6 8 7 6 5 5 5 5 6 7 7 6 5 7 4 5 6 8 7 6 5 4 4 5 4 6 7 6 7 8 7 8 8 10 8
6 7 7 7 7 7 6 6 6 6 6 6 7 5 5 5 7 8 7 5 6 7 7 5 6 7 8 10 9 9 8 9 5 6 5 5 6 8 6 6 8 8 9
7 8 7 7 7 6 6 6 6 6 7 7 6 5 5 5 7 7 6 4 6 8 8 5 7 9 9 7 9 10 10 11 8 10 6 4 4 4 5 6 9 8 9
Wind_Direction
224 222 223 228 232 238 255 280 303 306 317 324 328 330 333 333 335 329 327 320 322 318 324 321 321 321 319 317 316 315 311 308 297 307 301 297 246 225 232 219 208 217 218
230 224 224 225 227 235 244 257 248 276 304 319 325 328 331 330 330 325 319 320 317 320 325 324 321 322 317 320 321 317 314 310 305 304 303 303 258 234 217 217 209 216 215
232 225 230 229 229 239 243 245 251 257 277 304 321 320 326 328 323 320 313 312 314 313 322 322 319 322 316 320 317 316 316 313 308 302 304 303 276 270 239 217 212 221 217
251 234 231 224 222 232 237 247 256 246 279 291 279 289 310 317 318 316 314 312 313 317 320 318 317 318 314 315 316 314 315 316 314 307 308 308 299 252 229 200 217 247 205
252 240 236 229 220 229 234 245 265 269 275 276 296 286 292 315 315 318 313 315 317 320 319 316 316 313 311 317 315 312 310 317 314 310 309 313 311 293 233 215 227 201 311
253 249 237 223 218 224 226 233 251 271 286 294 295 310 314 315 315 319 324 317 320 319 317 316 317 312 317 316 316 311 307 317 308 308 306 307 305 303 288 231 198 183 240
244 264 252 233 228 220 210 216 233 258 271 284 304 310 295 303 314 321 321 317 312 308 303 311 313 311 316 312 310 306 312 311 307 302 298 300 299 299 303 269 206 221 236
254 248 242 227 229 208 194 210 217 235 251 268 282 279 281 290 316 319 320 316 294 281 288 298 297 305 311 315 311 314 315 309 304 300 299 295 289 284 279 271 237 206 3
247 245 237 221 217 193 200 207 214 225 253 261 268 280 285 294 314 319 321 307 302 294 298 290 281 299 311 316 321 317 308 304 302 308 306 302 297 283 277 254 200 166 221
241 241 230 214 207 191 187 193 208 194 235 263 277 270 280 284 300 312 316 306 309 306 306 289 304 317 318 326 320 314 309 309 314 320 315 310 304 285 282 240 219 207 189
239 223 218 190 177 168 171 176 185 229 255 272 278 283 281 269 288 312 312 308 298 304 313 315 315 319 326 326 323 319 306 314 323 312 307 310 316 309 287 251 250 222 210
216 209 197 173 170 169 179 194 218 211 245 268 285 288 273 276 289 303 311 316 315 312 312 311 313 326 327 326 328 320 321 331 310 313 314 318 319 318 320 284 274 224 12
193 200 181 169 181 177 187 202 217 211 237 263 262 274 278 268 266 290 305 309 313 318 305 331 332 329 327 328 325 330 336 322 321 319 318 315 312 306 297 296 321 107 83
218 200 179 187 194 190 211 204 210 214 233 250 255 268 267 262 256 274 276 274 294 307 326 335 332 330 327 324 322 330 327 325 322 318 314 312 309 316 310 283 309 307 147
209 191 199 192 197 206 221 207 220 219 218 225 241 249 277 290 278 295 310 316 306 314 11 356 330 329 328 327 327 327 327 328 330 325 318 320 321 323 317 309 270 248 288
210 203 205 200 205 205 211 258 261 260 263 266 280 286 275 288 304 302 312 314 314 333 36 335 317 318 319 323 325 323 326 327 329 324 322 320 323 325 321 313 287 288 244
240 210 184 202 201 205 197 239 278 298 287 282 285 284 294 298 297 307 308 308 341 353 8 293 299 304 308 313 315 317 318 320 321 323 322 322 324 326 327 329 323 311 343
253 233 197 212 220 221 197 223 228 248 288 299 288 297 298 300 306 305 305 335 339 337 234 272 288 289 296 303 309 309 313 317 320 325 323 324 328 329 330 335 335 328 6
239 246 219 212 208 229 202 217 223 237 244 271 303 299 289 304 307 306 313 141 270 286 288 282 258 275 286 288 292 296 299 308 313 318 320 326 328 330 328 332 331 334 329
255 244 219 212 218 214 204 222 227 214 227 225 253 266 302 0 304 275 243 243 255 258 270 275 278 267 274 274 285 286 300 306 313 317 320 323 325 326 328 332 333 327 325
258 248 234 218 208 210 231 230 233 234 227 229 239 225 261 267 290 275 286 270 254 258 266 274 278 269 277 280 275 269 275 293 301 308 315 321 324 326 328 325 324 327 327
250 245 220 228 239 232 229 227 230 239 242 229 256 248 284 269 275 273 270 266 260 245 249 265 275 265 272 279 285 280 271 280 294 303 311 316 318 323 326 327 332 333 338
235 239 229 219 220 234 239 240 240 243 249 242 245 265 253 236 243 256 265 265 267 268 250 244 264 276 268 259 244 240 256 266 263 295 300 307 313 318 324 324 327 334 339
232 235 241 244 229 217 219 229 232 236 239 244 241 237 252 261 265 265 261 264 265 267 251 253 257 262 275 280 271 253 240 251 243 264 272 291 302 312 315 319 323 325 327
260 251 244 244 240 237 235 230 236 237 240 241 246 236 235 240 261 264 262 248 266 273 275 262 258 262 268 278 281 283 271 278 253 248 258 243 270 295 304 313 321 321 326
264 256 253 248 244 240 237 241 244 244 242 240 229 231 235 247 263 262 263 251 263 268 269 260 267 267 271 268 273 280 277 282 264 237 225 230 259 285 299 309 323 324 327